Wind_Speed
37 37 39 42 44 46 48 50 51 53 54 56 57 58 58 59 60 62 64 66 67 65 64 62 56 52 50 49 48 47 46 44 42 39 36 33 31 28 26 25 24 23 23
39 41 44 46 49 51 54 55 57 58 59 60 61 62 62 62 62 63 64 66 68 69 69 68 64 59 56 53 52 51 49 47 45 42 39 36 33 30 28 26 25 24 24
42 45 47 50 53 55 58 59 60 61 61 61 61 63 64 65 66 65 65 65 67 69 71 71 71 67 61 57 55 54 52 50 48 45 42 39 36 32 30 27 26 25 25
45 48 50 53 56 58 60 62 62 63 63 62 62 62 63 64 66 66 66 66 66 68 71 73 74 73 68 63 58 56 55 53 51 49 46 42 38 35 32 29 26 25 25
47 50 52 54 56 58 60 61 61 61 60 59 58 59 61 62 64 65 65 66 66 67 68 71 74 76 73 69 63 57 56 55 53 51 49 45 41 38 34 31 28 26 25
49 51 53 54 56 58 58 57 57 55 52 51 51 53 54 57 59 61 63 63 63 63 65 67 70 74 76 73 68 63 58 57 56 53 50 47 44 40 37 33 30 27 25
50 52 53 54 56 57 56 54 52 48 45 44 44 46 49 51 53 56 59 59 59 57 59 61 64 69 72 75 73 69 63 58 59 57 53 49 46 43 39 35 32 29 27
51 52 53 55 56 55 53 51 47 42 38 36 36 37 42 46 48 51 54 54 53 51 50 52 56 59 66 71 74 72 68 62 56 56 54 52 49 46 42 38 34 31 28
51 52 53 54 54 53 50 47 43 37 33 30 29 30 33 39 43 46 47 47 47 45 43 44 47 50 56 64 69 71 68 65 61 54 51 52 51 48 43 39 35 32 28
50 50 52 53 52 50 48 44 38 33 28 25 22 23 27 32 37 40 42 42 42 41 40 39 40 43 47 53 59 65 68 68 64 58 52 49 49 47 44 40 37 33 29
49 49 50 51 50 48 46 41 35 30 25 21 17 17 22 27 32 36 38 40 40 39 38 36 35 36 39 43 48 54 61 65 63 60 53 48 47 46 43 40 37 34 30
47 48 49 49 47 45 43 39 34 29 24 19 14 13 18 24 28 33 36 39 39 37 35 34 32 31 32 35 39 45 52 59 62 60 57 51 46 43 42 41 39 35 31
46 46 47 47 45 43 40 37 33 28 23 17 11 8 14 20 25 31 35 37 37 37 34 31 29 28 28 29 32 38 45 51 55 56 54 50 46 44 43 42 40 36 33
45 45 45 45 43 41 39 36 32 27 22 16 9 6 12 18 24 28 33 35 35 34 32 30 28 27 27 27 28 31 38 45 50 53 52 49 47 45 44 42 40 38 35
43 43 44 44 42 39 37 34 31 27 22 16 9 4 9 16 22 26 30 32 33 33 31 30 29 28 27 26 27 28 33 40 47 51 51 50 47 46 44 42 41 38 37
42 41 42 42 40 37 35 32 30 27 22 16 10 2 8 14 19 24 27 29 30 29 29 28 28 29 29 27 27 28 30 37 46 51 51 50 48 46 45 43 41 39 38
40 40 40 41 40 36 33 30 27 25 22 17 12 5 3 10 17 22 25 27 28 27 27 27 28 29 30 29 28 28 30 36 44 50 51 51 49 46 45 43 41 40 39
38 38 39 39 37 35 32 29 26 23 21 17 13 8 4 7 12 17 22 24 25 26 26 27 28 29 30 30 29 28 31 37 45 49 50 50 48 46 44 43 41 40 39
37 37 37 37 35 33 31 27 24 21 19 16 13 10 6 6 9 13 17 20 22 23 24 26 27 29 29 29 29 30 33 39 46 48 49 49 47 46 44 42 41 40 39
35 36 36 35 33 32 29 26 22 18 16 15 12 10 8 7 7 10 13 16 18 20 22 24 26 27 28 29 30 31 36 44 48 47 47 47 46 44 42 41 40 39 38
33 34 34 33 32 30 28 25 21 17 14 13 11 9 8 7 8 9 11 13 15 18 20 22 24 26 27 28 30 33 39 45 47 47 47 46 45 43 42 41 40 38 37
31 32 33 32 31 29 27 24 20 17 14 11 10 8 6 6 7 8 9 11 12 14 16 19 21 22 25 27 31 35 42 45 47 48 46 45 44 42 41 40 39 37 35
28 30 31 31 30 28 26 24 21 17 14 11 9 8 7 6 6 7 8 9 11 13 15 17 18 19 22 26 30 36 42 45 48 47 45 44 42 40 38 37 36 36 34
26 27 29 30 29 27 25 24 22 19 15 12 9 7 6 5 5 6 8 8 10 12 13 14 15 17 20 24 30 36 40 43 44 43 42 40 38 35 34 33 33 33 32
24 24 26 27 27 26 25 24 22 20 17 14 12 10 9 7 7 7 7 8 9 11 13 13 14 18 22 27 34 39 42 43 42 40 38 37 34 32 32 30 30 30 29
22 22 22 24 25 25 25 23 22 20 18 16 15 13 12 10 9 9 9 10 11 13 16 18 22 24 28 32 37 40 41 39 37 35 32 31 29 28 28 29 28 27 26
Wind_Direction
302 299 296 295 292 291 289 286 283 279 275 271 268 264 261 258 255 251 249 248 246 244 243 242 241 240 237 236 234 232 231 232 232 231 229 230 232 235 240 246 253 259 264
304 302 301 299 297 295 293 290 287 282 278 273 268 264 260 257 254 251 248 246 245 243 242 242 241 240 238 236 234 231 230 230 231 232 231 231 232 234 238 244 252 259 264
307 306 305 303 301 298 296 293 289 285 280 274 268 263 259 256 252 249 247 245 243 242 241 241 241 241 239 237 234 230 228 228 229 231 232 232 233 234 237 242 250 257 262
311 310 309 308 306 303 300 296 292 288 282 275 268 262 257 253 250 247 245 243 242 241 240 239 239 240 240 239 235 230 227 226 227 229 231 232 233 234 237 241 247 254 260
315 316 315 314 312 309 305 301 297 292 285 277 268 260 254 250 247 244 242 241 240 240 239 238 237 238 239 239 236 231 226 225 224 226 228 230 232 233 235 239 245 251 257
321 321 321 319 317 314 311 308 302 296 289 279 269 260 252 247 244 241 239 239 239 239 239 238 237 236 237 238 237 233 227 223 223 224 225 227 229 231 233 236 241 247 253
326 326 325 324 322 320 317 314 309 302 294 284 273 260 249 243 240 238 236 236 236 237 238 238 237 235 234 235 235 235 231 225 222 222 222 224 226 228 229 233 237 243 249
329 330 329 328 327 326 323 319 316 308 299 289 275 262 247 237 235 234 233 232 232 233 235 236 236 235 233 232 232 233 232 229 224 220 221 222 223 225 226 229 234 240 246
332 332 333 333 333 331 329 326 322 315 305 295 278 260 243 232 230 230 227 226 227 227 227 229 231 232 233 231 231 231 231 231 230 224 219 219 221 222 223 225 229 235 241
335 335 336 337 337 336 335 333 331 325 316 304 284 259 238 228 224 223 220 218 218 216 217 220 224 228 230 231 230 229 230 232 231 229 226 221 218 218 220 222 226 232 238
337 338 339 340 340 340 340 340 338 335 327 315 294 259 233 223 220 216 213 210 208 207 209 211 216 221 225 227 228 227 227 228 229 230 230 228 222 218 219 222 224 228 233
339 341 342 343 344 344 345 344 343 341 335 325 307 261 230 219 216 211 206 203 203 202 204 208 210 214 219 223 224 224 224 225 228 230 231 230 225 220 220 222 224 225 230
341 343 345 346 347 348 349 349 348 345 342 334 316 261 224 215 212 207 202 200 200 200 202 206 208 212 215 219 221 222 221 220 222 224 227 226 225 221 219 220 222 223 226
343 345 347 348 349 351 352 353 353 352 349 342 326 269 224 212 206 203 200 199 201 202 205 207 209 209 213 218 220 219 218 215 214 216 219 220 221 220 218 218 220 221 224
345 347 348 350 351 352 353 356 357 357 356 354 344 258 213 205 202 201 199 201 202 204 207 209 210 211 213 216 218 218 216 211 207 207 209 213 215 216 215 216 219 221 223
346 348 351 353 354 354 355 357 0 3 4 5 5 319 207 202 200 200 201 202 203 205 208 209 211 213 212 214 216 217 215 209 201 200 202 206 210 211 213 215 218 220 221
347 350 353 355 356 356 357 359 2 6 9 11 15 25 176 192 196 199 201 203 203 205 206 208 209 210 211 213 214 215 213 206 198 194 196 199 203 207 210 214 217 219 220
349 351 354 356 358 358 359 0 4 9 14 17 23 37 83 161 183 192 197 200 203 204 205 207 208 209 211 212 212 213 209 201 193 190 191 194 198 202 206 210 214 217 220
350 353 356 358 0 2 2 2 5 12 18 23 29 40 67 121 162 181 191 196 199 201 203 206 208 209 210 212 213 212 205 195 188 185 186 190 195 199 203 208 212 215 219
351 355 357 360 3 4 5 6 7 12 18 24 33 43 64 98 136 163 177 186 193 196 200 203 206 209 212 213 211 209 202 191 183 182 183 188 193 197 202 206 209 213 217
352 356 358 1 4 7 8 10 12 14 18 24 34 47 69 95 121 146 165 177 186 193 198 203 207 209 211 210 208 205 198 188 180 179 182 187 191 196 201 204 208 211 214
353 358 1 4 6 9 11 13 17 20 24 29 36 51 75 104 128 147 164 179 189 195 199 201 205 209 210 209 207 200 193 184 177 178 182 186 190 194 199 203 206 210 212
353 358 2 6 8 11 14 16 19 23 29 38 48 59 74 100 133 154 167 177 185 189 193 198 203 203 202 199 197 193 188 180 175 177 181 185 189 194 199 204 207 210 211
353 357 2 7 11 13 16 19 22 27 33 40 50 60 68 90 124 149 165 173 175 178 181 186 186 185 184 184 185 181 176 171 171 176 181 185 188 193 198 204 205 206 207
352 356 2 7 12 16 18 20 24 30 38 46 54 61 66 82 106 128 149 163 169 170 170 168 165 163 165 169 169 167 166 167 170 175 179 184 188 194 197 200 203 204 207
350 355 1 7 13 17 20 23 27 34 42 50 57 63 71 79 91 104 122 134 142 144 143 140 142 146 151 156 159 161 163 165 169 173 177 182 187 192 197 200 202 203 207
Height
5718 5714 5709 5705 5700 5695 5690 5686 5682 5679 5676 5674 5673 5672 5672 5673 5675 5678 5683 5688 5694 5700 5705 5710 5715 5721 5727 5734 5740 5746 5753 5759 5764 5770 5775 5780 5784 5788 5791 5794 5796 5798 5799
5708 5703 5697 5691 5685 5679 5672 5666 5661 5657 5654 5651 5650 5650 5651 5652 5655 5658 5663 5668 5674 5681 5688 5693 5699 5705 5712 5719 5726 5734 5741 5747 5753 5759 5765 5771 5776 5780 5784 5787 5790 5791 5793
5696 5690 5683 5676 5668 5661 5653 5645 5638 5633 5629 5626 5625 5625 5626 5629 5632 5637 5642 5648 5654 5661 5669 5676 5682 5689 5697 5704 5712 5720 5728 5735 5742 5749 5755 5761 5767 5772 5777 5780 5783 5785 5786
5684 5676 5668 5660 5651 5641 5632 5623 5614 5607 5602 5598 5597 5598 5600 5603 5608 5614 5620 5627 5634 5641 5649 5657 5665 5672 5681 5690 5698 5706 5714 5722 5731 5738 5745 5751 5758 5764 5769 5773 5776 5778 5780
5671 5662 5653 5643 5632 5621 5610 5600 5590 5581 5574 5570 5569 5570 5573 5578 5584 5591 5599 5606 5614 5622 5629 5637 5646 5655 5664 5674 5684 5693 5701 5709 5718 5726 5734 5741 5749 5755 5761 5765 5768 5771 5773
5658 5648 5637 5626 5615 5603 5590 5578 5567 5557 5549 5544 5543 5545 5549 5554 5561 5569 5578 5586 5596 5604 5611 5618 5627 5637 5647 5658 5669 5679 5688 5697 5705 5714 5723 5731 5739 5746 5752 5757 5761 5764 5767
5645 5634 5623 5611 5599 5585 5572 5559 5547 5536 5529 5523 5521 5522 5527 5534 5542 5550 5559 5569 5579 5587 5594 5602 5610 5620 5630 5641 5653 5664 5674 5683 5693 5703 5711 5720 5729 5736 5743 5748 5753 5757 5760
5633 5622 5610 5597 5584 5570 5556 5543 5530 5520 5512 5507 5504 5504 5509 5516 5524 5533 5542 5553 5564 5573 5580 5587 5596 5604 5613 5624 5637 5649 5660 5671 5680 5691 5701 5710 5717 5725 5732 5739 5744 5749 5752
5623 5611 5598 5585 5572 5558 5544 5530 5518 5508 5500 5494 5491 5492 5495 5502 5510 5519 5530 5542 5552 5561 5568 5576 5583 5591 5598 5610 5623 5636 5647 5658 5668 5678 5688 5697 5706 5715 5723 5730 5736 5741 5745
5614 5602 5589 5576 5562 5548 5534 5521 5509 5499 5491 5486 5482 5482 5486 5492 5500 5509 5520 5531 5542 5551 5559 5566 5573 5580 5587 5596 5607 5620 5633 5645 5657 5667 5677 5686 5696 5705 5713 5721 5728 5733 5737
5607 5594 5582 5568 5555 5541 5528 5515 5504 5495 5487 5481 5477 5477 5480 5486 5493 5502 5512 5523 5533 5542 5550 5557 5564 5571 5578 5586 5596 5606 5619 5632 5644 5657 5667 5677 5687 5696 5705 5713 5720 5726 5730
5600 5588 5576 5563 5549 5536 5524 5512 5501 5492 5485 5479 5475 5475 5477 5482 5489 5497 5507 5517 5526 5535 5544 5551 5558 5565 5572 5579 5587 5595 5606 5619 5632 5645 5658 5668 5678 5687 5696 5704 5711 5717 5723
5595 5583 5571 5558 5545 5533 5522 5510 5500 5491 5484 5478 5475 5474 5476 5480 5486 5494 5503 5513 5522 5531 5539 5547 5554 5560 5566 5573 5580 5587 5596 5608 5621 5635 5648 5660 5669 5678 5687 5696 5703 5709 5715
5590 5579 5567 5555 5543 5531 5520 5510 5500 5492 5484 5479 5475 5474 5476 5480 5485 5492 5501 5509 5519 5527 5535 5543 5550 5556 5562 5568 5574 5581 5589 5599 5610 5624 5637 5649 5659 5670 5679 5688 5696 5702 5708
5586 5575 5564 5552 5541 5530 5520 5510 5501 5493 5485 5480 5476 5475 5477 5480 5484 5491 5498 5507 5515 5523 5531 5539 5545 5552 5557 5563 5570 5576 5583 5592 5602 5614 5626 5639 5651 5662 5671 5680 5688 5696 5702
5583 5572 5562 5551 5540 5530 5521 5512 5503 5495 5488 5483 5479 5477 5478 5480 5485 5490 5497 5505 5512 5520 5527 5534 5541 5547 5553 5559 5565 5571 5578 5585 5594 5605 5617 5630 5643 5654 5664 5673 5681 5689 5696
5580 5570 5560 5550 5540 5530 5522 5513 5506 5498 5492 5486 5483 5480 5480 5481 5485 5490 5496 5503 5510 5517 5524 5530 5537 5543 5549 5555 5560 5566 5572 5579 5588 5599 5610 5623 5635 5646 5657 5666 5675 5682 5689
5579 5569 5559 5550 5540 5532 5523 5516 5509 5502 5496 5491 5487 5485 5484 5484 5487 5491 5496 5502 5509 5515 5521 5527 5533 5538 5544 5550 5555 5561 5567 5574 5584 5594 5605 5616 5629 5640 5651 5660 5669 5676 5683
5578 5569 5559 5550 5541 5533 5525 5518 5512 5506 5501 5496 5493 5490 5489 5489 5490 5493 5497 5502 5508 5513 5518 5523 5529 5534 5539 5545 5550 5556 5562 5570 5579 5589 5600 5612 5624 5635 5645 5654 5663 5670 5677
5577 5568 5559 5551 5542 5535 5527 5521 5515 5509 5505 5501 5498 5496 5494 5494 5494 5496 5499 5503 5507 5511 5516 5521 5525 5530 5535 5540 5545 5550 5557 5565 5574 5585 5597 5609 5620 5631 5640 5649 5657 5664 5671
5576 5568 5560 5552 5544 5536 5530 5523 5518 5513 5509 5505 5503 5500 5499 5498 5499 5500 5502 5505 5508 5512 5515 5519 5523 5527 5530 5535 5540 5545 5552 5561 5571 5583 5595 5606 5617 5627 5636 5644 5652 5659 5665
5576 5569 5561 5553 5546 5539 5532 5526 5520 5516 5512 5509 5506 5504 5503 5502 5503 5504 5505 5507 5509 5511 5514 5517 5520 5523 5527 5530 5535 5541 5549 5558 5570 5581 5593 5603 5613 5623 5632 5640 5648 5654 5661
5577 5570 5563 5555 5548 5541 5535 5529 5524 5519 5515 5512 5509 5507 5506 5505 5505 5506 5507 5508 5509 5511 5513 5516 5518 5521 5524 5528 5533 5540 5549 5558 5570 5581 5592 5602 5612 5621 5629 5636 5643 5650 5656
5577 5571 5565 5558 5551 5544 5538 5533 5527 5522 5518 5515 5512 5511 5509 5508 5508 5508 5508 5509 5510 5512 5513 5515 5517 5520 5523 5528 5533 5542 5550 5560 5571 5582 5592 5602 5611 5620 5627 5633 5640 5646 5652
5578 5572 5567 5560 5554 5548 5542 5537 5531 5526 5522 5519 5516 5514 5512 5511 5510 5510 5510 5511 5512 5513 5514 5516 5518 5521 5525 5531 5538 5547 5556 5565 5575 5585 5594 5603 5611 5618 5625 5631 5637 5642 5648
5578 5574 5568 5563 5557 5552 5546 5541 5536 5531 5527 5523 5521 5518 5517 5515 5515 5514 5514 5514 5515 5516 5517 5519 5522 5526 5531 5538 5545 5553 5562 5572 5581 5589 5597 5604 5611 5617 5623 5629 5634 5639 5644